GTI575 EGUN-EGCC

Flight info

Callsign GTI575
Flight time 0h 42m
Altitude 20000
Route WELIN T420 TNT DCT DAYNE DCT OSNAP
Aircraft B744/H-SDE3FGHIM1M2RWXY/LB1

Departure

Time 2026-05-06 10:12
Airport RAF Mildenhall (EGUN)

Arrival

Time 2026-05-06 10:54
Airport Manchester Airport (EGCC)
Time Latitude Longitude Altitude Speed Heading
2026-05-06 09:14 52.36071 0.46507 34 ft 0 kts 57°
2026-05-06 09:53 52.36070 0.46506 34 ft 1 kts 57°
2026-05-06 09:54 52.36069 0.46502 34 ft 0 kts 57°
2026-05-06 09:56 52.36069 0.46503 34 ft 0 kts 57°
2026-05-06 09:59 52.36074 0.46515 32 ft 4 kts 57°
2026-05-06 09:59 52.36093 0.46582 32 ft 12 kts 105°
2026-05-06 09:59 52.36022 0.46584 32 ft 12 kts 210°
2026-05-06 10:00 52.35947 0.46527 32 ft 13 kts 188°
2026-05-06 10:00 52.35878 0.46547 32 ft 9 kts 141°
2026-05-06 10:00 52.35835 0.46634 33 ft 11 kts 120°
2026-05-06 10:00 52.35796 0.46744 33 ft 12 kts 120°
2026-05-06 10:01 52.35761 0.46845 33 ft 9 kts 112°
2026-05-06 10:01 52.35742 0.46957 34 ft 11 kts 102°
2026-05-06 10:01 52.35724 0.47088 34 ft 12 kts 101°
2026-05-06 10:01 52.35706 0.47232 34 ft 13 kts 101°
2026-05-06 10:02 52.35687 0.47383 35 ft 14 kts 101°
2026-05-06 10:02 52.35669 0.47534 35 ft 13 kts 101°
2026-05-06 10:02 52.35652 0.47672 36 ft 10 kts 101°
2026-05-06 10:02 52.35643 0.47794 36 ft 12 kts 90°
2026-05-06 10:03 52.35643 0.47933 37 ft 12 kts 90°
2026-05-06 10:03 52.35643 0.48079 37 ft 13 kts 90°
2026-05-06 10:03 52.35651 0.48209 33 ft 12 kts 75°
2026-05-06 10:03 52.35674 0.48344 32 ft 13 kts 75°
2026-05-06 10:04 52.35697 0.48482 34 ft 13 kts 75°
2026-05-06 10:04 52.35721 0.48625 36 ft 13 kts 75°
2026-05-06 10:04 52.35746 0.48775 34 ft 14 kts 75°
2026-05-06 10:04 52.35773 0.48933 34 ft 15 kts 75°
2026-05-06 10:05 52.35800 0.49096 35 ft 15 kts 75°
2026-05-06 10:05 52.35827 0.49258 36 ft 13 kts 74°
2026-05-06 10:05 52.35833 0.49394 37 ft 13 kts 102°
2026-05-06 10:05 52.35813 0.49544 37 ft 14 kts 102°
2026-05-06 10:06 52.35791 0.49702 40 ft 14 kts 103°
2026-05-06 10:06 52.35768 0.49864 37 ft 14 kts 103°
2026-05-06 10:06 52.35745 0.50021 37 ft 14 kts 103°
2026-05-06 10:06 52.35723 0.50173 38 ft 13 kts 103°
2026-05-06 10:07 52.35703 0.50312 41 ft 10 kts 103°
2026-05-06 10:07 52.35693 0.50419 40 ft 10 kts 79°
2026-05-06 10:07 52.35723 0.50525 39 ft 10 kts 46°
2026-05-06 10:07 52.35782 0.50583 39 ft 8 kts 17°
2026-05-06 10:08 52.35842 0.50609 40 ft 8 kts 13°
2026-05-06 10:08 52.35881 0.50623 40 ft 6 kts
2026-05-06 10:08 52.35907 0.50609 40 ft 5 kts 314°
2026-05-06 10:08 52.35917 0.50559 39 ft 0 kts 281°
2026-05-06 10:09 52.35917 0.50560 39 ft 0 kts 281°
2026-05-06 10:10 52.35925 0.50497 39 ft 20 kts 282°
2026-05-06 10:11 52.36008 0.49904 39 ft 87 kts 284°
2026-05-06 10:11 52.36120 0.49141 38 ft 117 kts 283°
2026-05-06 10:11 52.36335 0.47670 38 ft 143 kts 283°
2026-05-06 10:11 52.36534 0.45983 309 ft 160 kts 283°
2026-05-06 10:12 52.36743 0.44114 825 ft 173 kts 283°
2026-05-06 10:12 52.36969 0.42095 1172 ft 187 kts 283°
2026-05-06 10:12 52.37208 0.39988 1462 ft 188 kts 283°
2026-05-06 10:12 52.37449 0.37869 1712 ft 191 kts 283°
2026-05-06 10:13 52.37697 0.35700 2001 ft 194 kts 283°
2026-05-06 10:13 52.37958 0.33432 2049 ft 203 kts 281°
2026-05-06 10:13 52.37716 0.31139 2058 ft 212 kts 240°
2026-05-06 10:13 52.36670 0.29468 2058 ft 211 kts 208°
2026-05-06 10:14 52.35278 0.28798 2088 ft 207 kts 178°
2026-05-06 10:14 52.33941 0.29479 2054 ft 199 kts 143°
2026-05-06 10:14 52.33162 0.31222 2034 ft 192 kts 102°
2026-05-06 10:14 52.33151 0.33350 2039 ft 185 kts 82°
2026-05-06 10:15 52.33262 0.35443 2047 ft 182 kts 84°
2026-05-06 10:15 52.33351 0.37509 2047 ft 181 kts 84°
2026-05-06 10:15 52.33437 0.39550 2040 ft 180 kts 84°
2026-05-06 10:15 52.33522 0.41593 2047 ft 182 kts 84°
2026-05-06 10:16 52.33552 0.43693 2048 ft 187 kts 94°
2026-05-06 10:16 52.33291 0.45828 2049 ft 194 kts 101°
2026-05-06 10:16 52.32966 0.47992 2067 ft 198 kts 102°
2026-05-06 10:16 52.32631 0.50205 2106 ft 201 kts 102°
2026-05-06 10:17 52.32289 0.52458 2101 ft 206 kts 102°
2026-05-06 10:17 52.31943 0.54738 2106 ft 207 kts 102°
2026-05-06 10:17 52.31578 0.57040 2130 ft 210 kts 103°
2026-05-06 10:17 52.31168 0.59371 2141 ft 216 kts 104°
2026-05-06 10:18 52.30739 0.61777 2146 ft 223 kts 104°
2026-05-06 10:18 52.30302 0.64237 2145 ft 226 kts 103°
2026-05-06 10:18 52.30258 0.66752 2164 ft 224 kts 67°
2026-05-06 10:18 52.31281 0.68550 2195 ft 218 kts 27°
2026-05-06 10:19 52.32794 0.68878 2188 ft 228 kts 351°
2026-05-06 10:19 52.34198 0.67629 2233 ft 238 kts 315°
2026-05-06 10:19 52.34981 0.65241 2198 ft 248 kts 284°
2026-05-06 10:19 52.35051 0.62470 2150 ft 236 kts 271°
2026-05-06 10:20 52.35039 0.59789 2206 ft 239 kts 274°
2026-05-06 10:20 52.35138 0.57057 2262 ft 240 kts 277°
2026-05-06 10:20 52.35297 0.54352 2281 ft 238 kts 278°
2026-05-06 10:20 52.35461 0.51702 2266 ft 231 kts 279°
2026-05-06 10:21 52.35700 0.49107 2167 ft 231 kts 282°
2026-05-06 10:21 52.35986 0.46479 2094 ft 234 kts 283°
2026-05-06 10:21 52.36284 0.43848 2055 ft 234 kts 283°
2026-05-06 10:21 52.36587 0.41222 2050 ft 235 kts 283°
2026-05-06 10:22 52.36910 0.38474 2470 ft 257 kts 283°
2026-05-06 10:22 52.37254 0.35571 3589 ft 262 kts 283°
2026-05-06 10:22 52.37675 0.32623 4728 ft 270 kts 288°
2026-05-06 10:22 52.38267 0.29659 5855 ft 260 kts 291°
2026-05-06 10:23 52.38935 0.26626 6928 ft 289 kts 291°
2026-05-06 10:23 52.39626 0.23507 7679 ft 283 kts 290°
2026-05-06 10:23 52.40281 0.20367 8390 ft 278 kts 290°
2026-05-06 10:23 52.40929 0.17226 9455 ft 292 kts 290°
2026-05-06 10:24 52.41571 0.14120 10488 ft 293 kts 290°
2026-05-06 10:24 52.42227 0.10931 11529 ft 297 kts 290°
2026-05-06 10:24 52.42878 0.07727 12484 ft 298 kts 290°
2026-05-06 10:24 52.43558 0.04433 13153 ft 313 kts 290°
2026-05-06 10:25 52.44274 0.00958 13807 ft 329 kts 289°
2026-05-06 10:25 52.45006 -0.02628 14600 ft 326 kts 289°
2026-05-06 10:25 52.45754 -0.06280 15305 ft 340 kts 288°
2026-05-06 10:25 52.46505 -0.09983 15941 ft 344 kts 288°
2026-05-06 10:26 52.47251 -0.13722 16594 ft 347 kts 288°
2026-05-06 10:26 52.47998 -0.17496 17238 ft 350 kts 288°
2026-05-06 10:26 52.48751 -0.21314 17872 ft 353 kts 288°
2026-05-06 10:26 52.49510 -0.25156 18479 ft 350 kts 288°
2026-05-06 10:27 52.50277 -0.29028 19096 ft 353 kts 288°
2026-05-06 10:27 52.51056 -0.32945 19698 ft 364 kts 288°
2026-05-06 10:27 52.51846 -0.36888 19983 ft 362 kts 288°
2026-05-06 10:27 52.52636 -0.40837 20025 ft 362 kts 287°
2026-05-06 10:28 52.53418 -0.44770 20023 ft 360 kts 287°
2026-05-06 10:28 52.54193 -0.48687 20019 ft 360 kts 287°
2026-05-06 10:28 52.54951 -0.52542 20017 ft 359 kts 287°
2026-05-06 10:28 52.55716 -0.56436 20016 ft 357 kts 287°
2026-05-06 10:29 52.56477 -0.60319 20015 ft 356 kts 287°
2026-05-06 10:29 52.57238 -0.64207 20014 ft 357 kts 287°
2026-05-06 10:29 52.57996 -0.68096 20012 ft 358 kts 287°
2026-05-06 10:29 52.58754 -0.71982 20010 ft 356 kts 287°
2026-05-06 10:30 52.59512 -0.75874 20008 ft 356 kts 287°
2026-05-06 10:30 52.60268 -0.79761 20006 ft 358 kts 287°
2026-05-06 10:30 52.61022 -0.83644 20011 ft 356 kts 287°
2026-05-06 10:30 52.61775 -0.87528 20010 ft 355 kts 287°
2026-05-06 10:31 52.62527 -0.91409 20009 ft 355 kts 287°
2026-05-06 10:31 52.63275 -0.95287 20009 ft 356 kts 287°
2026-05-06 10:31 52.64022 -0.99172 20010 ft 355 kts 287°
2026-05-06 10:31 52.64768 -1.03060 20014 ft 356 kts 287°
2026-05-06 10:32 52.65514 -1.06951 20012 ft 357 kts 287°
2026-05-06 10:32 52.66259 -1.10844 20012 ft 357 kts 287°
2026-05-06 10:32 52.67001 -1.14738 20013 ft 357 kts 287°
2026-05-06 10:32 52.67743 -1.18632 20017 ft 357 kts 287°
2026-05-06 10:33 52.68476 -1.22490 20018 ft 357 kts 287°
2026-05-06 10:33 52.69226 -1.26395 20017 ft 358 kts 288°
2026-05-06 10:33 52.70397 -1.30003 20014 ft 360 kts 306°
2026-05-06 10:33 52.72206 -1.32860 20013 ft 361 kts 320°
2026-05-06 10:34 52.74252 -1.35259 19637 ft 359 kts 324°
2026-05-06 10:34 52.76368 -1.37465 19142 ft 358 kts 326°
2026-05-06 10:34 52.78468 -1.39540 18886 ft 343 kts 327°
2026-05-06 10:34 52.80461 -1.41476 18719 ft 324 kts 327°
2026-05-06 10:35 52.82379 -1.43357 18324 ft 319 kts 327°
2026-05-06 10:35 52.84268 -1.45242 17875 ft 316 kts 326°
2026-05-06 10:35 52.86123 -1.47125 17479 ft 312 kts 326°
2026-05-06 10:35 52.87952 -1.48996 17067 ft 308 kts 326°
2026-05-06 10:36 52.89766 -1.50854 16649 ft 306 kts 326°
2026-05-06 10:36 52.91566 -1.52703 16253 ft 304 kts 326°
2026-05-06 10:36 52.93350 -1.54541 15839 ft 301 kts 326°
2026-05-06 10:36 52.95125 -1.56370 15432 ft 300 kts 326°
2026-05-06 10:37 52.96887 -1.58187 15036 ft 297 kts 326°
2026-05-06 10:37 52.98612 -1.59970 14617 ft 296 kts 326°
2026-05-06 10:37 53.00367 -1.61800 14238 ft 292 kts 326°
2026-05-06 10:37 53.02062 -1.63565 13843 ft 291 kts 326°
2026-05-06 10:38 53.03777 -1.65344 13441 ft 289 kts 326°
2026-05-06 10:38 53.05428 -1.67228 13027 ft 287 kts 317°
2026-05-06 10:38 53.06788 -1.69609 12644 ft 282 kts 311°
2026-05-06 10:38 53.08075 -1.72067 12266 ft 280 kts 310°
2026-05-06 10:39 53.09334 -1.74527 11875 ft 278 kts 309°
2026-05-06 10:39 53.10581 -1.76984 11495 ft 277 kts 309°
2026-05-06 10:39 53.11815 -1.79437 11108 ft 275 kts 310°
2026-05-06 10:39 53.13046 -1.81859 10783 ft 272 kts 310°
2026-05-06 10:40 53.14240 -1.84185 10616 ft 258 kts 311°
2026-05-06 10:40 53.15393 -1.86423 10312 ft 252 kts 311°
2026-05-06 10:40 53.16527 -1.88636 9956 ft 251 kts 311°
2026-05-06 10:40 53.17659 -1.90838 9548 ft 249 kts 311°
2026-05-06 10:41 53.18784 -1.93025 9168 ft 248 kts 311°
2026-05-06 10:41 53.19905 -1.95205 8822 ft 247 kts 311°
2026-05-06 10:41 53.21014 -1.97376 8475 ft 245 kts 312°
2026-05-06 10:41 53.22114 -1.99530 8138 ft 242 kts 312°
2026-05-06 10:42 53.23183 -2.01692 8044 ft 242 kts 306°
2026-05-06 10:42 53.23818 -2.04269 8041 ft 246 kts 283°
2026-05-06 10:42 53.23782 -2.07157 8037 ft 253 kts 260°
2026-05-06 10:42 53.23072 -2.09891 7875 ft 259 kts 243°
2026-05-06 10:43 53.22120 -2.12438 7634 ft 258 kts 240°
2026-05-06 10:43 53.21131 -2.14931 7384 ft 258 kts 239°
2026-05-06 10:43 53.20133 -2.17422 7145 ft 258 kts 239°
2026-05-06 10:44 53.18145 -2.22365 6628 ft 256 kts 239°
2026-05-06 10:44 53.17156 -2.24825 6366 ft 256 kts 239°
2026-05-06 10:44 53.16171 -2.27284 6146 ft 255 kts 239°
2026-05-06 10:44 53.15188 -2.29735 5890 ft 254 kts 239°
2026-05-06 10:45 53.14205 -2.32182 5620 ft 254 kts 239°
2026-05-06 10:45 53.13226 -2.34620 5357 ft 253 kts 239°
2026-05-06 10:45 53.12254 -2.37056 5174 ft 252 kts 239°
2026-05-06 10:45 53.11306 -2.39464 4966 ft 242 kts 242°
2026-05-06 10:46 53.10987 -2.42066 4709 ft 227 kts 279°
2026-05-06 10:46 53.11331 -2.44575 4360 ft 218 kts 289°
2026-05-06 10:46 53.11773 -2.46971 4119 ft 216 kts 290°
2026-05-06 10:46 53.12240 -2.49335 3925 ft 215 kts 290°
2026-05-06 10:47 53.12746 -2.51657 3690 ft 212 kts 300°
2026-05-06 10:47 53.13759 -2.53344 3505 ft 203 kts 326°
2026-05-06 10:47 53.14902 -2.54605 3278 ft 193 kts 328°
2026-05-06 10:47 53.16020 -2.55812 3128 ft 191 kts 328°
2026-05-06 10:48 53.17171 -2.56891 3071 ft 188 kts 349°
2026-05-06 10:48 53.18467 -2.56787 3094 ft 185 kts 12°
2026-05-06 10:48 53.19710 -2.56388 3094 ft 178 kts 13°
2026-05-06 10:48 53.20869 -2.55790 3088 ft 170 kts 32°
2026-05-06 10:49 53.21778 -2.54541 3097 ft 167 kts 45°
2026-05-06 10:49 53.22566 -2.53107 3093 ft 165 kts 50°
2026-05-06 10:49 53.23294 -2.51627 3094 ft 162 kts 52°
2026-05-06 10:49 53.23997 -2.50158 3069 ft 160 kts 52°
2026-05-06 10:50 53.24677 -2.48733 2929 ft 157 kts 52°
2026-05-06 10:50 53.25357 -2.47316 2711 ft 156 kts 52°
2026-05-06 10:50 53.26031 -2.45915 2493 ft 154 kts 52°
2026-05-06 10:50 53.26702 -2.44525 2276 ft 154 kts 52°
2026-05-06 10:51 53.27368 -2.43143 2073 ft 152 kts 52°
2026-05-06 10:51 53.28016 -2.41798 1862 ft 147 kts 52°
2026-05-06 10:51 53.28649 -2.40486 1672 ft 144 kts 52°
2026-05-06 10:51 53.29274 -2.39190 1470 ft 143 kts 52°
2026-05-06 10:52 53.29897 -2.37898 1263 ft 143 kts 52°
2026-05-06 10:52 53.30519 -2.36611 1057 ft 142 kts 52°
2026-05-06 10:52 53.31139 -2.35327 844 ft 142 kts 52°
2026-05-06 10:52 53.31758 -2.34045 659 ft 142 kts 52°
2026-05-06 10:53 53.32382 -2.32750 475 ft 145 kts 52°
2026-05-06 10:53 53.33010 -2.31442 305 ft 144 kts 52°
2026-05-06 10:53 53.33619 -2.30181 240 ft 122 kts 48°
2026-05-06 10:53 53.34032 -2.29332 240 ft 67 kts 51°
2026-05-06 10:54 53.34263 -2.28857 239 ft 38 kts 51°
2026-05-06 10:54 53.34400 -2.28634 244 ft 23 kts 33°
2026-05-06 10:54 53.34540 -2.28514 244 ft 21 kts 21°
2026-05-06 10:54 53.34655 -2.28441 241 ft 15 kts 21°
2026-05-06 10:55 53.34734 -2.28356 236 ft 14 kts 47°
2026-05-06 10:55 53.34796 -2.28224 237 ft 14 kts 51°
2026-05-06 10:55 53.34862 -2.28088 237 ft 17 kts 51°
2026-05-06 10:55 53.34914 -2.27982 236 ft 11 kts 47°
2026-05-06 10:56 53.34974 -2.27990 237 ft 9 kts 322°
2026-05-06 10:56 53.34992 -2.28012 238 ft 0 kts 323°
2026-05-06 10:57 53.34997 -2.28019 239 ft 5 kts 323°
2026-05-06 10:57 53.35041 -2.28074 239 ft 9 kts 322°
2026-05-06 10:57 53.35103 -2.28158 240 ft 14 kts 321°
2026-05-06 10:57 53.35178 -2.28208 239 ft 11 kts
2026-05-06 10:58 53.35258 -2.28191 238 ft 12 kts
2026-05-06 10:58 53.35346 -2.28170 239 ft 13 kts
2026-05-06 10:58 53.35437 -2.28151 242 ft 13 kts
2026-05-06 10:58 53.35534 -2.28082 241 ft 15 kts 47°
2026-05-06 10:59 53.35581 -2.27990 242 ft 9 kts 50°
2026-05-06 10:59 53.35615 -2.27922 244 ft 9 kts 43°
2026-05-06 10:59 53.35677 -2.27888 246 ft 10 kts
2026-05-06 10:59 53.35745 -2.27872 249 ft 9 kts
2026-05-06 11:00 53.35797 -2.27862 253 ft 7 kts
2026-05-06 11:00 53.35844 -2.27854 256 ft 5 kts
2026-05-06 11:00 53.35881 -2.27848 258 ft 7 kts
2026-05-06 11:00 53.35938 -2.27854 260 ft 9 kts 344°
2026-05-06 11:01 53.36005 -2.27919 261 ft 11 kts 321°
2026-05-06 11:01 53.36051 -2.27983 262 ft 6 kts 320°
2026-05-06 11:01 53.36085 -2.28034 262 ft 8 kts 316°
2026-05-06 11:01 53.36131 -2.28111 262 ft 11 kts 314°
2026-05-06 11:02 53.36169 -2.28176 262 ft 12 kts 313°
2026-05-06 11:02 53.36234 -2.28289 262 ft 14 kts 315°
2026-05-06 11:02 53.36302 -2.28403 262 ft 14 kts 318°
2026-05-06 11:02 53.36368 -2.28473 262 ft 8 kts 354°
2026-05-06 11:03 53.36401 -2.28481 262 ft 5 kts 341°
2026-05-06 11:03 53.36436 -2.28513 262 ft 3 kts 319°
2026-05-06 11:03 53.36455 -2.28543 262 ft 5 kts 315°
2026-05-06 11:03 53.36468 -2.28595 262 ft 7 kts 245°
2026-05-06 11:04 53.36433 -2.28643 262 ft 4 kts 223°
2026-05-06 11:04 53.36426 -2.28654 262 ft 0 kts 222°